Regional Weather Roundup
Issued by NWS

Home | Current Version | Previous Version | Graphics & Text | Print | Product List | Glossary On
Versions: 1 2 3 4 5 6 7 8 9 10 11 12 13 14 15 16 17 18 19 20 21 22 23 24 25 26 27 28 29 30 31 32 33 34 35 36 37 38 39 40 41 42 43 44 45 46 47 48 49 50
000
ASUS43 KLOT 282121
RWRIL

ILLINOIS REGIONAL WEATHER ROUNDUP
NATIONAL WEATHER SERVICE CHICAGO/ROMEOVILLE IL
400 PM CDT THU MAY 28 2015

NOTE: "FAIR" INDICATES FEW OR NO CLOUDS BELOW 12,000 FEET WITH NO
SIGNIFICANT WEATHER AND/OR OBSTRUCTIONS TO VISIBILITY.

* THESE STATIONS ARE NOT UNDER NWS QUALITY CONTROL. THEY ALSO MAY NOT
  REPORT WEATHER SUCH AS PRECIPITATION OR FOG.

ILZ001-002-007-009-015-016-024-282200-
NORTHWEST ILLINOIS

CITY           SKY/WX    TMP DP  RH WIND       PRES   REMARKS
MOLINE         MOSUNNY   83  53  35 SE13G20   30.07F HX  82
STERLING*      MOSUNNY   82  54  36 SE7G16    30.10F HX  81
SAVANNA*       MOSUNNY   83  49  30 S13G21    30.10F HX  82
$$

ILZ003-004-008-010-011-017-018-282200-
NORTH CENTRAL ILLINOIS

CITY           SKY/WX    TMP DP  RH WIND       PRES   REMARKS
ROCKFORD       PTSUNNY   81  55  40 S12       30.14F HX  81
ROCHELLE*      MOSUNNY   83  53  34 S14G20    30.13F HX  82
DE KALB*       MOSUNNY   78  56  46 S13G20    30.14F
PERU*          MOSUNNY   83  47  27 SE13G18   30.11F HX  81
$$

ILZ005-006-012>014-019>023-282200-
NORTHEAST ILLINOIS

CITY           SKY/WX    TMP DP  RH WIND       PRES   REMARKS
CHICAGO-OHARE  PTSUNNY   81  55  40 SE8       30.13F HX  81
CHICAGO-MIDWAY PTSUNNY   83  56  39 E13       30.13F HX  82
AURORA         MOSUNNY   83  52  34 SE12      30.13F HX  82
LANSING*       SUNNY     82  49  31 S8        30.14F HX  80
JOLIET*        MOSUNNY   84  53  34 SE9       30.13F HX  83
WAUKEGAN       SUNNY     74  57  55 SE8       30.15F
DUPAGE AIRPORT SUNNY     82  55  39 S10       30.13F HX  81
KANKAKEE*      MOSUNNY   83  56  39 SE14      30.13F HX  83
WHEELING       SUNNY     80  53  39 E9        30.15F HX  80
MORRIS*        MOSUNNY   86  49  27 SE8       30.11F HX  83
ROMEOVILLE*    SUNNY     82  52  35 SE12      30.13F HX  81
NORTHERLY ISL    N/A     71  56  58 N5          N/A
$$

LMZ740>746-282200-
SOUTHERN LAKE MICHIGAN

STATION/POSITION SKY/WX   TEMP    WIND        PRES    VSBY  WAVE
                          AIR SEA DIR/SP/G                  HT/PER
                          (F)     (DEG/KT/KT) (MB)    (MI)  (FT/S)
SOUTHERN BUOY              54 39  150/  2/  2 1022.4F         0
HARRISON CRIB              63      10/  3/  4   N/A
BURNHAM HARBOR             71     360/  3/  5   N/A
CALUMET HARBOR             71      30/  7/ 11   N/A
BURNS HARBOR               70      30/  9/ 19 1021.7F
MICHIGAN CITY              69      10/ 11/ 13   N/A
MICHIGAN CITY 6N           60 56   40/  8/ 10   N/A           1
ST. JOSEPH                 62 59  360/  6/  8   N/A           0
$$

ILZ025>027-034>036-040-047-049-050-058-095>099-282200-
WEST-CENTRAL ILLINOIS

CITY           SKY/WX    TMP DP  RH WIND       PRES   REMARKS
QUINCY         PTSUNNY   79  62  56 SE9       30.07F HX  80
GALESBURG*     SUNNY     81  53  38 SE7G16    30.09F HX  80
MACOMB*        SUNNY     82  55  39 SE12      30.10F HX  81
JACKSONVILLE*  MOSUNNY   85  62  45 SE9       30.07F HX  86
PITTSFIELD*    CLOUDY    81  64  55 SE6       30.09R HX  82
$$

ILZ028>032-037-038-041>044-048-051>054-059>061-282200-
CENTRAL ILLINOIS

CITY           SKY/WX    TMP DP  RH WIND       PRES   REMARKS
PONTIAC        MOSUNNY   86  49  28 SE14      30.12F HX  83
BLOOMINGTON    MOSUNNY   84  56  38 S13       30.12F HX  83
DECATUR        SUNNY     84  56  38 W7        30.10F HX  83
PEORIA         MOSUNNY   85  54  34 S9        30.09F HX  83
LACON*         PTSUNNY   83  50  31 SE12      30.09F HX  81
LINCOLN*       MOSUNNY   85  53  33 S6G17     30.06F HX  83
SPRINGFIELD    MOSUNNY   86  61  42 VRB6      30.08F HX  86
TAYLORVILLE    MOSUNNY   81  63  54 S6        30.08F HX  82
$$

ILZ033-039-045-046-055>057-062-063-282200-
EAST-CENTRAL ILLINOIS

CITY           SKY/WX    TMP DP  RH WIND       PRES   REMARKS
CHAMPAIGN      MOSUNNY   85  54  34 E12       30.11F HX  83
DANVILLE*      MOSUNNY   84  51  32 CALM      30.10F HX  82
RANTOUL*       MOSUNNY   86  48  26 SE14      30.12F HX  83
PARIS*         SUNNY     86  55  35 S9        30.12F HX  84
$$

ILZ079-100>102-282200-
SOUTHWEST ILLINOIS

CITY           SKY/WX    TMP DP  RH WIND       PRES   REMARKS
ALTON          MOSUNNY   81  70  69 S12       30.09S HX  84
BELLEVILLE     MOSUNNY   82  70  66 VRB3      30.07F HX  85
CAHOKIA*       PTSUNNY   83  65  54 S7        30.07F HX  85
SPARTA*        MOSUNNY   81  67  62 S7        30.10F HX  83
$$

ILZ064>066-069>071-074>076-080>082-084>086-088>090-092>094-282200-
SOUTH-CENTRAL ILLINOIS

CITY           SKY/WX    TMP DP  RH WIND       PRES   REMARKS
CARBONDALE     PTSUNNY   83  64  52 S10       30.10F HX  84
CAIRO*         PTSUNNY   82  65  56 S7        30.11F HX  84
EFFINGHAM*     MOSUNNY   85  58  40 E7        30.11F HX  84
MARION         PTSUNNY   84  66  54 MISG      30.11F HX  86
MT. VERNON     MOSUNNY   84  66  54 S7        30.10F HX  86
CENTRALIA*     MOSUNNY   81  65  58 S12       30.10F HX  83
SALEM*         MOSUNNY   86  63  46 S10       30.10F HX  87
METROPOLIS*    MOSUNNY   85  64  49 S7        30.10F HX  86
$$

ILZ067-068-072-073-078-083-087-091-282200-
SOUTHEAST ILLINOIS

CITY           SKY/WX    TMP DP  RH WIND       PRES   REMARKS
LAWRENCEVILLE  MOSUNNY   84  63  49 SE12      30.11F HX  85
FLORA*         MOSUNNY   83  65  54 SE10      30.11F HX  84
FAIRFIELD*     CLOUDY    83  65  55 SE12      30.09F HX  84
HARRISBURG*    PTSUNNY   85  65  51 S9G28     30.12F HX  86
ROBINSON*      MOSUNNY   86  60  41 S8        30.12F HX  86
CARMI*         MOSUNNY   88  55  33 S12       30.10F HX  86
$$

ABBREVIATIONS USED IN REMARKS
   TC - TEMPERATURE IN CELSIUS
  WCI - WIND CHILL INDEX
   HX - HEAT INDEX
  VSB - VISIBILITY
$$




USA.gov is the U.S. government's official web portal to all federal, state and local government web resources and services.